• In Denmark
  • List of Countries
  • For 7 days
  • Water Temperature
  • Satellite Maps
  • Weather Map
  • Weather Widgets
  • user-avatar
    Login

    Hourly Weather Ashdod

    Today, 24 January, Wednesday

    Time Temperature Precipitation Wind Pressure Humidity
    00:00 +14°C° 0.3 mm 4 mps 760 mmHg 79%
    01:00 +13°C° 0.3 mm 4 mps 760 mmHg 79%
    02:00 +13°C° 0 mm 4 mps 759 mmHg 79%
    03:00 +13°C° 0.5 mm 4 mps 760 mmHg 77%
    04:00 +13°C° 0.5 mm 3 mps 760 mmHg 76%
    05:00 +13°C° 0.5 mm 3 mps 760 mmHg 75%
    06:00 +13°C° 0.4 mm 3 mps 760 mmHg 73%
    07:00 +14°C° 0.4 mm 4 mps 760 mmHg 71%
    08:00 +14°C° 0.4 mm 4 mps 760 mmHg 70%
    09:00 +15°C° 0.3 mm 4 mps 760 mmHg 66%
    10:00 +16°C° 0.3 mm 5 mps 760 mmHg 63%
    11:00 +17°C° 0.3 mm 5 mps 760 mmHg 60%
    12:00 +17°C° 0.4 mm 5 mps 759 mmHg 60%
    13:00 +17°C° 0.4 mm 5 mps 759 mmHg 59%
    14:00 +17°C° 0.4 mm 5 mps 759 mmHg 59%
    15:00 +17°C° 0.4 mm 5 mps 759 mmHg 62%
    16:00 +17°C° 0.4 mm 4 mps 759 mmHg 65%
    17:00 +16°C° 0.4 mm 3 mps 759 mmHg 68%
    18:00 +16°C° 0.4 mm 3 mps 759 mmHg 71%
    19:00 +15°C° 0.4 mm 2 mps 759 mmHg 74%
    20:00 +15°C° 0.4 mm 1 mps 759 mmHg 78%
    21:00 +14°C° 0.5 mm 1 mps 759 mmHg 78%
    22:00 +14°C° 0.5 mm 1 mps 759 mmHg 79%
    23:00 +14°C° 0.5 mm 1 mps 759 mmHg 80%

    Tomorrow, 25 January, Thursday

    Time Temperature Precipitation Wind Pressure Humidity
    00:00 +14°C° 1 mm 2 mps 759 mmHg 80%
    01:00 +14°C° 1 mm 2 mps 758 mmHg 80%
    02:00 +13°C° 1 mm 3 mps 758 mmHg 80%
    03:00 +13°C° 1.8 mm 3 mps 758 mmHg 81%
    04:00 +13°C° 1.8 mm 3 mps 758 mmHg 82%
    05:00 +12°C° 1.8 mm 3 mps 757 mmHg 83%
    06:00 +13°C° 2.4 mm 4 mps 757 mmHg 82%
    07:00 +13°C° 2.4 mm 5 mps 757 mmHg 80%
    08:00 +13°C° 2.4 mm 6 mps 757 mmHg 78%
    09:00 +12°C° 1.7 mm 7 mps 757 mmHg 77%
    10:00 +13°C° 1.7 mm 9 mps 757 mmHg 75%
    11:00 +13°C° 1.7 mm 10 mps 757 mmHg 74%
    12:00 +13°C° 0.7 mm 10 mps 757 mmHg 73%
    13:00 +13°C° 0.7 mm 11 mps 757 mmHg 71%
    14:00 +13°C° 0.7 mm 11 mps 756 mmHg 70%
    15:00 +13°C° 0.5 mm 11 mps 757 mmHg 69%
    16:00 +12°C° 0.5 mm 10 mps 757 mmHg 68%
    17:00 +12°C° 0.5 mm 10 mps 757 mmHg 67%
    18:00 +12°C° 0.6 mm 10 mps 757 mmHg 66%
    19:00 +12°C° 0.6 mm 10 mps 757 mmHg 66%
    20:00 +12°C° 0.6 mm 11 mps 758 mmHg 65%
    21:00 +11°C° 0.1 mm 11 mps 758 mmHg 66%
    22:00 +9°C° 0.1 mm 11 mps 758 mmHg 66%
    23:00 +8°C° 0.1 mm 11 mps 758 mmHg 67%

    Day after tomorrow, 26 January, Friday

    Time Temperature Precipitation Wind Pressure Humidity
    00:00 +8°C° 0.2 mm 11 mps 758 mmHg 67%
    01:00 +8°C° 0.2 mm 11 mps 758 mmHg 68%
    02:00 +8°C° 0.2 mm 11 mps 758 mmHg 69%
    03:00 +8°C° 0.4 mm 11 mps 758 mmHg 69%
    04:00 +7°C° 0.4 mm 11 mps 758 mmHg 70%
    05:00 +7°C° 0.4 mm 11 mps 758 mmHg 71%
    06:00 +7°C° 0.6 mm 12 mps 759 mmHg 71%
    07:00 +8°C° 0.6 mm 12 mps 759 mmHg 71%
    08:00 +8°C° 0.6 mm 13 mps 759 mmHg 71%
    09:00 +8°C° 0.5 mm 13 mps 759 mmHg 68%
    10:00 +9°C° 0.5 mm 13 mps 760 mmHg 64%
    11:00 +10°C° 0.5 mm 14 mps 760 mmHg 61%
    12:00 +9°C° 1 mm 14 mps 759 mmHg 64%
    13:00 +9°C° 1 mm 13 mps 759 mmHg 67%
    14:00 +9°C° 1 mm 13 mps 759 mmHg 70%
    15:00 +9°C° 1.3 mm 12 mps 759 mmHg 71%
    16:00 +9°C° 1.3 mm 12 mps 759 mmHg 73%
    17:00 +11°C° 1.3 mm 11 mps 759 mmHg 74%
    18:00 +9°C° 1 mm 10 mps 760 mmHg 76%
    19:00 +9°C° 1 mm 10 mps 760 mmHg 78%
    20:00 +10°C° 1 mm 9 mps 761 mmHg 81%
    21:00 +10°C° 1.4 mm 9 mps 761 mmHg 81%
    22:00 +10°C° 1.4 mm 9 mps 761 mmHg 81%
    23:00 +10°C° 1.4 mm 9 mps 762 mmHg 81%

    27 January, Saturday

    Time Temperature Precipitation Wind Pressure Humidity
    00:00 +10°C° 1.2 mm 8 mps 762 mmHg 81%
    01:00 +10°C° 1.2 mm 8 mps 762 mmHg 82%
    02:00 +10°C° 1.2 mm 7 mps 762 mmHg 83%
    03:00 +10°C° 0.9 mm 7 mps 762 mmHg 83%
    04:00 +10°C° 0.9 mm 6 mps 762 mmHg 83%
    05:00 +10°C° 0.9 mm 6 mps 763 mmHg 83%
    06:00 +10°C° 0.6 mm 5 mps 763 mmHg 83%
    07:00 +10°C° 0.6 mm 5 mps 764 mmHg 83%
    08:00 +10°C° 0.6 mm 5 mps 764 mmHg 83%
    09:00 +12°C° 0.4 mm 4 mps 765 mmHg 82%
    10:00 +12°C° 0.4 mm 4 mps 765 mmHg 80%
    11:00 +12°C° 0.4 mm 4 mps 765 mmHg 79%
    12:00 +13°C° 0.2 mm 4 mps 765 mmHg 79%
    13:00 +13°C° 0.2 mm 3 mps 765 mmHg 78%
    14:00 +13°C° 0.2 mm 3 mps 765 mmHg 77%
    15:00 +13°C° 0.4 mm 3 mps 765 mmHg 79%
    16:00 +13°C° 0.4 mm 3 mps 765 mmHg 80%
    17:00 +13°C° 0.4 mm 3 mps 765 mmHg 81%
    18:00 +13°C° 0.4 mm 3 mps 766 mmHg 82%
    19:00 +13°C° 0.4 mm 3 mps 766 mmHg 83%
    20:00 +12°C° 0.4 mm 3 mps 767 mmHg 84%
    21:00 +13°C° 0.2 mm 2 mps 767 mmHg 85%
    22:00 +13°C° 0.2 mm 2 mps 767 mmHg 86%
    23:00 +13°C° 0.2 mm 2 mps 767 mmHg 87%

    28 January, Sunday

    Time Temperature Precipitation Wind Pressure Humidity
    00:00 +13°C° 0.1 mm 1 mps 767 mmHg 87%
    01:00 +13°C° 0.1 mm 1 mps 767 mmHg 87%
    02:00 +12°C° 0.1 mm 1 mps 767 mmHg 87%
    03:00 +12°C° 0.1 mm 1 mps 767 mmHg 87%
    04:00 +12°C° 0.1 mm 1 mps 767 mmHg 86%
    05:00 +12°C° 0.1 mm 1 mps 767 mmHg 86%
    06:00 +13°C° 0.1 mm 1 mps 768 mmHg 84%
    07:00 +13°C° 0.1 mm 1 mps 768 mmHg 83%
    08:00 +14°C° 0.1 mm 1 mps 769 mmHg 81%
    09:00 +14°C° 0 mm 1 mps 769 mmHg 75%
    10:00 +15°C° 0 mm 1 mps 769 mmHg 69%
    11:00 +16°C° 0 mm 1 mps 769 mmHg 64%
    12:00 +16°C° 0 mm 1 mps 768 mmHg 63%
    13:00 +16°C° 0 mm 2 mps 768 mmHg 62%
    14:00 +16°C° 0 mm 3 mps 768 mmHg 61%
    15:00 +16°C° 0 mm 3 mps 768 mmHg 63%
    16:00 +16°C° 0 mm 3 mps 767 mmHg 66%
    17:00 +14°C° 0 mm 3 mps 767 mmHg 68%
    18:00 +14°C° 0 mm 2 mps 768 mmHg 71%
    19:00 +14°C° 0 mm 2 mps 768 mmHg 73%
    20:00 +13°C° 0 mm 2 mps 768 mmHg 76%
    21:00 +13°C° 0 mm 2 mps 768 mmHg 77%
    22:00 +13°C° 0 mm 1 mps 768 mmHg 79%
    23:00 +12°C° 0 mm 1 mps 768 mmHg 80%

    29 January, Monday

    Time Temperature Precipitation Wind Pressure Humidity
    00:00 +12°C° 0 mm 1 mps 768 mmHg 81%
    01:00 +12°C° 0 mm 1 mps 768 mmHg 82%
    02:00 +12°C° 0 mm 1 mps 767 mmHg 83%
    03:00 +11°C° 0 mm 1 mps 767 mmHg 83%
    04:00 +11°C° 0 mm 1 mps 767 mmHg 84%
    05:00 +11°C° 0 mm 1 mps 767 mmHg 84%
    06:00 +12°C° 0 mm 1 mps 767 mmHg 81%
    07:00 +12°C° 0 mm 1 mps 768 mmHg 78%
    08:00 +13°C° 0 mm 2 mps 768 mmHg 75%
    09:00 +14°C° 0 mm 1 mps 768 mmHg 70%
    10:00 +15°C° 0 mm 1 mps 768 mmHg 65%
    11:00 +16°C° 0 mm 1 mps 768 mmHg 59%
    12:00 +16°C° 0 mm 2 mps 767 mmHg 59%
    13:00 +17°C° 0 mm 3 mps 767 mmHg 58%
    14:00 +17°C° 0 mm 4 mps 766 mmHg 57%
    15:00 +15°C° 0 mm 4 mps 766 mmHg 61%
    16:00 +15°C° 0 mm 4 mps 766 mmHg 64%
    17:00 +14°C° 0 mm 4 mps 766 mmHg 67%
    18:00 +14°C° 0 mm 4 mps 767 mmHg 69%
    19:00 +13°C° 0 mm 3 mps 767 mmHg 72%
    20:00 +12°C° 0 mm 3 mps 767 mmHg 74%
    21:00 +12°C° 0 mm 3 mps 767 mmHg 75%
    22:00 +13°C° 0 mm 2 mps 767 mmHg 77%
    23:00 +12°C° 0 mm 2 mps 767 mmHg 78%
    Show more